Theta_e
310 310 311 312 313 314 315 317 319 318 317 315 314 312 311 311 312 317 319 324 329 339 347 349 347 350 349 353 353 355 364 359 343 346 349 345 347 347 344 344 343 343 343 342 342
310 310 311 312 312 314 315 314 316 317 316 315 314 311 311 311 315 321 324 330 342 351 342 345 345 350 350 348 351 353 360 360 336 343 347 347 346 347 348 346 345 343 341 341 342
310 310 311 312 312 313 315 315 313 314 315 315 313 310 311 312 330 328 326 327 343 345 343 343 346 349 353 350 353 353 354 338 338 344 344 346 347 346 348 347 344 344 342 342 341
310 310 311 311 312 313 314 316 313 312 313 313 311 311 311 317 332 326 326 333 346 353 346 344 347 351 354 354 352 359 349 340 339 342 343 345 340 346 346 344 343 342 342 342 342
310 310 310 311 311 312 313 317 314 311 311 310 310 311 317 326 324 325 326 343 348 351 348 348 346 347 353 352 351 353 346 339 339 336 336 337 343 345 347 343 342 342 342 343 342
310 310 310 310 311 312 312 316 315 311 310 310 311 311 323 320 330 327 331 343 348 350 353 345 344 344 353 351 352 349 345 342 338 340 339 340 340 345 347 344 344 344 343 343 342
310 310 310 310 310 311 313 316 314 311 311 311 311 314 325 320 330 328 334 342 348 349 352 350 346 349 348 352 350 349 348 344 345 343 341 338 342 352 347 345 345 344 344 343 341
310 310 310 310 310 311 314 315 313 312 311 311 310 322 319 322 324 328 329 333 340 347 349 348 350 347 348 348 348 352 347 347 345 346 344 339 344 349 346 345 345 344 344 343 340
311 310 310 310 311 311 317 315 312 312 311 311 316 321 318 327 327 327 331 333 336 337 339 343 343 348 349 347 352 352 353 351 349 348 346 342 343 342 342 343 344 344 343 343 341
312 311 310 310 311 311 318 319 315 315 316 316 320 322 321 327 328 329 330 334 334 337 337 339 343 346 348 348 351 352 354 356 352 350 350 351 350 342 342 343 344 343 343 342 342
312 312 310 310 310 311 318 326 320 322 322 313 316 323 324 326 327 328 329 330 334 336 338 339 345 349 346 346 348 349 352 358 354 351 356 353 351 351 347 342 343 342 342 341 339
312 312 310 310 310 311 315 324 327 326 326 321 319 322 324 323 326 329 328 333 337 338 339 342 344 344 345 346 347 349 351 357 354 353 352 350 358 353 350 346 343 343 343 342 340
312 312 310 310 311 312 315 320 323 322 323 325 322 318 318 320 324 327 325 330 336 338 340 345 346 344 346 345 347 347 348 349 354 352 349 350 351 349 347 349 342 342 342 342 342
313 312 311 311 315 319 321 326 324 322 323 326 326 323 322 324 324 324 326 328 332 336 336 334 333 334 345 336 339 338 343 348 351 351 352 348 353 352 351 350 343 339 341 342 341
314 312 311 311 313 314 327 326 323 323 332 332 322 324 319 322 323 325 326 326 327 327 327 327 327 327 330 332 332 332 333 333 333 343 339 351 347 349 348 353 353 348 342 340 340
314 313 312 313 311 317 323 324 324 326 333 329 324 322 320 321 323 324 325 325 325 325 324 323 324 325 327 327 326 328 329 326 327 328 333 336 344 350 351 351 352 353 348 343 340
314 314 313 315 318 322 322 320 326 329 329 327 323 320 320 323 324 324 324 324 322 324 322 321 323 322 325 325 322 325 323 327 334 335 336 334 342 346 346 345 351 350 348 347 340
317 314 315 314 312 314 323 322 333 333 334 327 323 321 322 322 322 324 324 323 322 321 321 323 324 324 324 322 323 325 323 325 332 336 333 334 342 342 344 342 344 344 342 344 345
321 322 321 319 312 312 320 326 330 332 333 331 323 323 322 323 324 324 323 322 323 321 322 320 323 324 323 322 321 322 323 322 324 324 328 330 333 339 342 343 345 344 344 343 342
317 320 324 322 313 318 322 326 328 331 331 331 332 325 326 326 324 323 323 324 325 322 318 322 324 324 324 322 323 322 320 320 317 329 332 334 334 336 343 341 340 340 342 344 345
321 324 329 323 317 319 325 325 330 330 330 331 331 331 332 334 330 324 324 326 325 325 320 320 321 324 325 324 321 325 321 317 317 320 323 332 333 331 337 338 340 341 351 355 353
316 328 327 321 318 319 324 328 328 330 328 328 329 329 330 331 333 333 329 331 330 323 322 327 319 324 326 326 325 324 322 317 318 321 322 325 330 332 335 339 342 348 354 352 350
314 322 322 319 319 319 319 324 327 327 328 327 328 328 329 331 333 334 333 331 332 332 332 329 325 326 327 324 327 329 329 327 318 319 326 330 333 337 340 342 349 353 351 350 349
319 330 322 317 316 321 325 323 329 328 326 327 327 327 326 329 328 332 334 333 332 332 336 330 323 326 328 329 329 332 332 331 325 326 326 327 339 338 343 350 351 350 350 348 347
320 325 322 324 324 324 323 325 328 330 327 324 326 326 327 327 331 332 330 330 332 334 330 325 329 330 329 330 332 333 333 332 332 333 330 331 336 331 341 349 348 346 345 342 340
317 319 318 321 321 320 324 327 328 328 325 328 328 327 325 326 327 327 324 326 330 327 329 328 333 335 335 331 332 335 331 328 328 334 331 331 338 336 341 341 342 341 340 339 337
321 321 318 321 320 322 320 325 323 324 323 323 323 325 323 323 323 320 319 319 321 325 324 329 329 332 338 327 331 334 330 326 338 338 336 342 340 341 341 341 339 338 338 337 336
Wind_Speed
13 14 13 12 11 10 9 8 8 8 6 6 7 8 9 12 11 6 4 2 5 8 12 16 8 10 35 13 12 6 2 3 5 10 3 8 7 8 10 17 12 5 11 14 31
13 14 13 12 11 10 8 8 7 7 6 6 7 7 9 12 10 8 3 8 11 10 7 14 8 13 6 5 3 4 2 4 6 7 7 9 13 13 11 16 11 17 11 20 26
14 14 13 12 11 10 9 7 7 7 6 6 5 6 8 10 3 5 8 10 14 13 6 3 12 4 6 7 1 4 4 6 5 10 14 12 17 17 19 12 21 21 18 16 14
14 13 13 13 12 10 9 7 6 6 5 5 4 5 7 4 2 1 15 17 13 10 5 2 6 6 3 4 3 4 8 5 9 11 11 15 9 7 15 11 21 22 21 15 12
15 14 13 13 12 11 9 7 6 5 4 3 3 5 2 2 7 8 18 18 16 10 3 5 5 4 1 4 3 5 10 7 11 14 13 10 12 10 13 19 19 19 18 16 12
16 15 14 13 12 11 10 6 5 5 4 3 3 4 1 2 3 15 20 20 15 14 10 5 4 5 4 4 5 8 12 4 8 9 9 10 6 9 16 20 19 19 18 16 14
17 16 14 14 12 11 10 6 4 4 3 2 3 2 1 10 5 18 20 21 20 19 5 14 9 2 2 5 6 10 7 5 7 4 7 10 6 14 20 20 20 17 16 15 14
18 16 15 15 13 12 9 4 4 3 2 1 2 1 6 6 9 13 18 15 17 22 24 23 22 2 2 4 4 5 5 3 3 6 4 9 4 16 18 18 16 15 14 15 12
20 17 16 15 14 12 8 3 2 2 2 1 1 1 9 6 9 20 20 10 20 25 28 20 12 4 4 2 4 4 4 2 9 1 5 4 3 11 10 15 14 13 12 11 11
21 18 16 15 14 12 6 2 2 2 1 0 2 3 7 6 9 18 21 20 7 5 5 5 4 3 2 2 4 6 3 4 4 6 12 9 2 7 14 14 15 12 9 7 10
23 20 16 14 13 11 4 1 4 1 4 9 7 4 5 4 3 9 19 11 4 1 3 2 4 8 13 13 5 7 3 4 14 6 5 9 8 7 5 9 11 11 10 8 10
25 21 18 14 12 8 3 2 7 4 6 14 10 8 17 10 4 5 16 6 4 6 3 4 7 14 16 11 7 9 7 11 13 5 4 6 7 8 6 5 14 16 13 14 8
28 23 19 14 10 6 7 15 5 13 1 7 8 7 8 9 8 8 10 7 5 5 7 4 12 10 8 9 10 10 13 9 6 10 6 4 7 1 4 6 9 12 14 11 14
31 25 21 13 1 1 7 3 24 6 4 6 4 7 4 6 5 9 15 8 4 10 10 8 6 9 9 8 6 5 15 16 9 6 5 3 3 6 4 5 9 9 12 14 15
32 26 20 10 5 3 1 16 24 4 4 4 3 5 7 9 3 3 11 3 6 8 4 12 7 5 6 6 4 7 2 1 2 6 4 4 2 3 9 7 6 8 9 15 16
33 24 17 4 8 11 17 15 2 5 5 3 6 5 6 3 4 5 5 3 3 3 2 10 4 4 4 4 1 3 3 8 6 3 3 8 7 4 8 15 6 8 14 16 16
30 21 12 11 5 2 14 4 5 3 5 4 5 6 5 6 4 6 6 5 5 2 6 9 8 7 4 4 7 8 7 4 5 4 6 3 5 7 14 9 13 21 17 14 15
24 13 8 17 13 11 6 5 2 5 7 4 5 5 8 7 6 7 6 5 5 5 2 1 9 4 4 8 7 2 7 5 3 2 6 5 7 5 14 10 11 14 4 5 8
19 4 5 9 13 7 5 3 7 6 2 7 5 4 4 6 6 6 9 8 9 10 8 6 7 7 10 5 10 3 2 7 4 2 2 3 3 8 9 3 4 6 12 18 18
17 6 6 4 14 8 4 6 5 3 5 2 2 4 1 5 3 5 9 8 7 12 7 5 3 3 3 7 1 5 4 3 4 2 4 5 4 6 8 9 7 11 3 3 19
5 3 2 13 14 5 3 7 6 7 6 1 2 1 3 1 3 5 10 10 6 7 13 7 4 7 4 2 7 3 2 6 5 4 4 1 6 5 7 11 11 9 12 15 14
6 2 12 23 3 1 3 5 4 7 7 7 2 1 1 2 2 6 6 2 8 7 10 3 6 3 7 5 4 4 2 5 5 4 2 4 5 7 6 7 16 14 15 14 16
2 3 12 14 3 3 6 6 4 11 6 5 3 5 3 4 3 4 6 3 9 6 4 4 2 3 9 7 7 6 4 3 3 3 2 4 2 5 9 11 11 15 13 13 14
2 3 4 4 2 5 3 7 5 9 7 4 4 4 6 6 6 5 9 6 6 5 3 7 3 6 6 5 4 4 7 5 5 3 3 5 7 6 6 15 11 9 11 12 12
2 1 0 3 4 5 3 5 7 4 3 5 5 7 2 4 5 5 6 8 9 11 4 4 1 2 3 3 4 1 5 8 6 3 4 1 14 11 14 16 11 12 11 12 11
3 4 5 3 4 6 1 1 4 3 7 4 8 11 12 6 3 1 5 5 2 7 7 7 0 2 4 7 6 3 8 7 7 8 7 5 1 4 8 9 9 9 11 12 10
7 6 3 5 6 5 4 3 5 3 9 7 9 7 9 4 3 5 5 5 6 1 3 3 3 3 2 4 4 4 5 5 7 12 2 4 2 7 12 13 7 8 9 9 8
Wind_Direction
357 355 354 353 349 345 337 323 313 314 321 324 321 319 323 323 320 301 253 113 151 146 163 169 161 152 161 191 207 169 210 282 194 173 163 143 152 179 125 136 151 210 146 165 149
354 351 352 349 348 345 338 326 316 311 318 322 324 327 328 330 320 253 198 126 123 128 151 189 172 147 149 137 237 147 277 254 191 136 150 174 162 138 131 149 121 118 142 156 152
353 351 348 348 345 343 336 328 322 315 321 323 328 326 330 336 308 251 189 186 159 142 131 170 90 82 43 358 128 224 261 172 129 136 147 154 141 155 148 162 151 150 153 157 158
351 349 345 343 342 338 335 328 325 320 324 322 329 328 330 350 163 334 147 165 163 170 230 260 81 53 73 312 209 291 293 160 145 153 150 160 143 143 163 171 155 153 155 159 160
350 347 344 342 339 335 332 324 320 320 327 332 339 342 350 16 252 163 155 159 164 161 279 19 47 93 345 240 277 209 336 152 149 155 164 129 162 144 146 143 149 151 155 167 173
349 347 342 340 338 332 329 317 314 320 329 347 346 348 38 300 228 172 163 164 179 183 211 155 188 191 225 310 54 304 340 260 151 161 150 131 154 114 153 148 154 160 168 176 184
348 345 341 337 335 331 326 312 303 309 325 348 350 25 21 237 211 171 174 183 184 196 188 221 163 147 150 125 313 319 3 11 32 52 141 117 78 144 153 155 160 170 176 186 193
348 343 340 336 332 332 327 305 294 297 310 325 319 103 246 258 216 191 193 193 205 214 221 233 221 167 97 355 325 352 70 38 286 7 230 93 202 151 158 156 167 175 185 194 204
349 342 339 335 331 331 326 314 291 292 289 296 12 137 269 314 192 217 205 199 221 232 237 243 159 155 46 65 16 30 258 148 327 301 142 97 143 166 170 162 168 180 198 198 205
349 341 337 335 330 332 333 322 297 290 225 144 262 336 273 226 203 218 214 221 214 247 278 191 69 83 73 116 200 237 326 323 228 352 112 76 94 138 178 169 178 183 200 205 188
348 342 336 334 328 330 341 333 26 22 201 197 197 235 274 267 300 209 202 211 234 350 241 234 145 222 219 200 165 181 174 29 300 255 93 163 162 201 166 188 183 195 194 199 182
347 343 338 333 323 315 304 143 219 104 301 222 230 263 273 282 297 206 189 164 167 246 284 351 232 231 235 223 177 155 197 191 287 240 104 243 190 190 172 206 196 192 202 195 175
349 344 337 332 319 297 237 231 232 344 298 284 190 203 230 148 216 217 146 187 180 249 267 212 263 286 225 213 172 188 205 212 172 162 51 129 325 274 254 241 224 204 206 200 182
348 342 336 329 323 338 255 267 342 256 35 274 187 255 215 164 287 220 190 158 182 225 249 240 268 269 201 236 148 225 218 225 176 159 216 169 248 257 216 209 191 212 211 206 200
344 337 332 314 286 225 224 307 327 117 5 225 190 174 154 161 207 225 182 85 231 251 61 271 312 329 284 241 138 222 321 306 0 163 102 219 129 246 158 193 179 190 202 215 216
340 330 323 284 247 255 325 329 54 47 260 251 156 169 109 216 250 316 153 95 200 253 283 253 247 223 234 274 139 276 47 30 35 93 334 191 155 265 193 192 169 218 205 205 209
334 319 288 206 222 269 342 33 53 153 310 208 171 134 174 187 235 175 145 178 175 37 313 328 295 294 209 290 355 56 52 349 348 9 232 132 102 214 212 189 194 208 200 200 200
334 306 260 236 238 283 13 58 188 244 266 235 134 110 167 183 233 192 141 205 249 121 98 254 320 206 206 176 183 136 139 151 250 242 266 139 194 247 207 176 211 236 299 225 226
341 327 254 261 221 225 76 103 211 222 312 344 48 120 245 243 192 141 191 205 203 168 170 181 268 302 172 150 127 261 167 192 142 236 10 274 317 47 102 176 245 270 271 264 238
335 314 252 145 159 124 81 222 240 246 345 331 129 140 183 299 175 169 182 213 218 186 158 218 292 310 351 66 338 155 177 32 11 5 354 317 313 196 165 197 215 227 121 37 197
341 13 219 154 136 56 179 229 278 278 353 97 141 315 190 201 229 222 206 252 210 216 169 171 105 294 53 165 199 334 352 53 116 146 172 240 278 258 166 160 143 80 67 65 71
344 28 160 156 85 184 215 214 311 283 323 289 140 201 78 234 34 355 174 305 312 155 147 162 152 150 239 298 275 172 359 125 126 257 214 155 299 357 112 139 106 89 77 71 73
350 267 181 168 144 262 293 289 259 275 241 274 79 80 16 32 48 27 344 7 43 61 146 187 26 40 347 359 3 53 344 302 104 93 180 115 253 5 89 62 68 94 92 85 76
61 13 325 29 99 141 270 277 265 282 208 200 133 87 45 7 32 34 355 335 21 40 57 77 96 138 182 194 199 339 349 10 110 43 187 172 141 230 120 112 101 84 81 78 80
58 315 153 307 325 324 220 261 281 310 59 57 45 31 92 39 29 30 339 348 0 359 17 83 120 109 148 252 0 347 357 337 13 330 83 33 160 205 165 137 131 126 113 95 85
53 32 343 287 309 325 81 262 338 351 19 19 96 66 65 95 132 308 357 36 72 338 19 355 129 84 20 11 26 22 51 33 20 3 74 223 27 353 65 78 79 71 82 83 77
350 335 111 292 341 20 300 358 10 88 9 61 114 83 56 8 276 245 198 243 235 314 352 52 108 77 250 332 74 41 348 76 76 22 235 166 135 98 72 72 55 63 67 70 57